Total_Precipitation_Accumulation
0.65 0.66 0.65 0.60 0.59 0.61 0.66 0.76 0.92 0.90 0.72 0.58 0.57 0.61 0.63 0.64 0.69 0.63 0.55 0.65 0.68 0.68 0.71 0.75 0.76 0.73 0.70 0.70 0.74 0.78 0.83 0.88 0.94 1.04 1.12 1.19 1.37 1.63
0.59 0.62 0.63 0.62 0.64 0.67 0.74 0.82 0.93 1.06 1.00 0.77 0.68 0.68 0.69 0.68 0.70 0.58 0.52 0.61 0.58 0.58 0.59 0.60 0.60 0.59 0.59 0.61 0.65 0.67 0.68 0.72 0.79 0.91 1.05 1.17 1.30 1.44
0.55 0.57 0.58 0.61 0.68 0.72 0.79 0.87 0.95 1.05 1.08 0.91 0.75 0.68 0.66 0.61 0.55 0.46 0.40 0.39 0.38 0.46 0.46 0.44 0.46 0.48 0.48 0.51 0.55 0.59 0.61 0.65 0.72 0.83 0.96 1.08 1.18 1.27
0.56 0.58 0.60 0.64 0.73 0.79 0.85 0.90 0.93 0.93 0.93 0.85 0.70 0.60 0.54 0.47 0.41 0.35 0.30 0.27 0.26 0.34 0.35 0.34 0.36 0.38 0.37 0.39 0.43 0.50 0.55 0.60 0.64 0.68 0.74 0.80 0.88 1.02
0.58 0.62 0.66 0.70 0.74 0.75 0.74 0.74 0.73 0.70 0.69 0.67 0.59 0.51 0.45 0.40 0.36 0.31 0.25 0.23 0.21 0.23 0.25 0.25 0.29 0.33 0.34 0.36 0.40 0.43 0.44 0.42 0.41 0.42 0.48 0.55 0.62 0.70
0.69 0.71 0.74 0.74 0.73 0.70 0.68 0.64 0.61 0.59 0.57 0.58 0.57 0.50 0.45 0.39 0.37 0.33 0.28 0.22 0.20 0.19 0.22 0.23 0.28 0.33 0.33 0.30 0.27 0.25 0.25 0.25 0.27 0.30 0.35 0.41 0.46 0.50
0.78 0.76 0.74 0.76 0.73 0.68 0.63 0.59 0.57 0.58 0.61 0.64 0.62 0.52 0.41 0.35 0.31 0.26 0.26 0.25 0.23 0.22 0.24 0.24 0.24 0.23 0.22 0.21 0.21 0.20 0.22 0.25 0.30 0.35 0.38 0.42 0.45 0.49
0.79 0.73 0.68 0.68 0.63 0.61 0.58 0.57 0.59 0.64 0.72 0.75 0.65 0.48 0.32 0.26 0.26 0.30 0.35 0.40 0.34 0.21 0.23 0.24 0.21 0.21 0.19 0.19 0.24 0.26 0.27 0.28 0.29 0.32 0.35 0.36 0.38 0.41
0.65 0.59 0.54 0.50 0.49 0.45 0.48 0.53 0.55 0.61 0.62 0.56 0.47 0.34 0.28 0.28 0.38 0.47 0.44 0.42 0.32 0.19 0.24 0.27 0.24 0.23 0.20 0.22 0.26 0.25 0.26 0.26 0.26 0.30 0.31 0.31 0.33 0.35
0.46 0.41 0.37 0.35 0.35 0.37 0.40 0.48 0.44 0.41 0.40 0.37 0.35 0.33 0.33 0.35 0.45 0.56 0.52 0.45 0.33 0.26 0.27 0.31 0.25 0.24 0.22 0.22 0.25 0.24 0.27 0.29 0.32 0.33 0.31 0.30 0.30 0.33
0.28 0.27 0.27 0.25 0.31 0.43 0.47 0.48 0.38 0.30 0.32 0.37 0.41 0.42 0.43 0.40 0.40 0.50 0.55 0.57 0.46 0.30 0.25 0.25 0.23 0.23 0.24 0.23 0.24 0.27 0.27 0.25 0.23 0.23 0.22 0.22 0.23 0.28
0.19 0.21 0.27 0.29 0.40 0.50 0.46 0.44 0.36 0.31 0.34 0.37 0.35 0.32 0.31 0.31 0.34 0.38 0.55 0.78 0.63 0.41 0.22 0.27 0.31 0.35 0.47 0.26 0.22 0.22 0.22 0.22 0.22 0.21 0.21 0.20 0.20 0.24
0.19 0.18 0.20 0.31 0.41 0.47 0.42 0.33 0.35 0.42 0.41 0.37 0.36 0.35 0.32 0.30 0.29 0.29 0.40 0.78 0.96 0.63 0.24 0.50 0.66 0.43 0.53 0.34 0.19 0.18 0.19 0.25 0.30 0.30 0.32 0.34 0.36 0.41
0.23 0.19 0.22 0.34 0.36 0.34 0.31 0.31 0.38 0.38 0.30 0.32 0.35 0.33 0.32 0.31 0.31 0.31 0.33 0.42 0.60 0.68 0.43 0.68 1.03 0.68 0.70 0.50 0.22 0.16 0.17 0.28 0.44 0.48 0.48 0.54 0.59 0.61
0.29 0.30 0.31 0.32 0.29 0.26 0.27 0.30 0.31 0.27 0.28 0.32 0.33 0.29 0.28 0.30 0.33 0.34 0.33 0.32 0.32 0.33 0.37 0.48 0.76 0.74 0.78 0.66 0.37 0.21 0.22 0.25 0.38 0.50 0.58 0.68 0.78 0.78
0.36 0.38 0.35 0.30 0.28 0.26 0.27 0.27 0.24 0.24 0.29 0.34 0.33 0.31 0.30 0.31 0.32 0.34 0.40 0.39 0.41 0.32 0.28 0.31 0.42 0.63 0.68 0.46 0.48 0.40 0.36 0.42 0.41 0.52 0.65 0.73 0.85 0.98
0.44 0.36 0.34 0.31 0.27 0.25 0.25 0.24 0.24 0.26 0.28 0.29 0.34 0.37 0.34 0.32 0.31 0.32 0.42 0.48 0.51 0.40 0.31 0.25 0.25 0.31 0.42 0.50 0.51 0.41 0.41 0.49 0.60 0.68 0.79 0.77 0.76 0.96
0.43 0.34 0.30 0.29 0.27 0.25 0.25 0.24 0.24 0.26 0.29 0.35 0.38 0.40 0.42 0.40 0.38 0.34 0.39 0.48 0.47 0.38 0.35 0.32 0.31 0.35 0.34 0.34 0.42 0.52 0.53 0.60 0.63 0.65 0.75 0.84 0.78 0.76
0.35 0.29 0.27 0.27 0.28 0.27 0.28 0.29 0.28 0.27 0.33 0.40 0.43 0.45 0.47 0.44 0.41 0.40 0.39 0.41 0.40 0.36 0.35 0.36 0.43 0.65 0.64 0.38 0.27 0.47 0.75 0.79 0.66 0.62 0.72 0.88 1.00 0.85
0.26 0.24 0.24 0.26 0.30 0.33 0.36 0.39 0.39 0.37 0.38 0.40 0.41 0.43 0.47 0.49 0.45 0.40 0.39 0.42 0.44 0.39 0.34 0.30 0.35 0.65 0.96 0.81 0.59 0.51 0.59 0.80 0.92 0.97 0.87 0.77 0.83 0.77
0.22 0.23 0.24 0.29 0.35 0.40 0.43 0.46 0.48 0.48 0.46 0.48 0.46 0.45 0.49 0.56 0.48 0.39 0.39 0.39 0.43 0.42 0.38 0.28 0.25 0.37 0.63 0.77 0.62 0.44 0.51 0.57 0.82 1.21 1.16 0.93 0.76 0.64
0.25 0.27 0.29 0.33 0.40 0.47 0.49 0.50 0.50 0.46 0.47 0.49 0.47 0.47 0.50 0.57 0.56 0.47 0.45 0.45 0.42 0.41 0.38 0.29 0.25 0.29 0.46 0.65 0.53 0.37 0.36 0.35 0.35 0.43 0.81 1.31 1.68 1.67
0.30 0.32 0.34 0.38 0.44 0.48 0.48 0.46 0.45 0.42 0.45 0.52 0.53 0.50 0.52 0.54 0.50 0.51 0.50 0.50 0.49 0.44 0.40 0.35 0.29 0.28 0.31 0.38 0.44 0.36 0.28 0.25 0.23 0.26 0.48 0.77 1.09 1.28